Simultaneous Nadir Overpasses (SNOs) Predictions

Prediction of SNOs between AQUA and GOES-15 Satellite Orbit:

Table of predicted SNOs for the next 14.0 days since TLE Epoch: 12/21/2013
Index Date Time (AQUA) AQUA Lat,Lon GOES-15 Lat,Lon Distance(km) Time Diff (sec)
1 12/21/2013 10:32:29 -0.29,-134.24 -0.10,-135.08 95.39 80
2 12/23/2013 10:20:18 -0.89,-131.28 -0.09,-135.02 424.77 80
3 12/23/2013 22:41:42 -0.24,-136.47 0.11,-134.96 171.71 80
4 12/25/2013 22:29:31 0.39,-133.51 0.11,-134.89 157.20 80
5 12/26/2013 10:50:47 0.68,-138.67 -0.12,-134.91 427.67 80
6 12/27/2013 22:17:19 0.99,-130.54 0.10,-134.82 485.54 80
7 12/28/2013 10:38:35 0.07,-135.71 -0.11,-134.83 99.44 80
8 12/30/2013 10:26:23 -0.56,-132.75 -0.11,-134.74 228.06 80
9 12/30/2013 22:47:46 -0.60,-137.92 0.12,-134.69 368.55 80
10 01/01/2014 22:35:33 0.01,-134.95 0.11,-134.59 41.84 80
11 01/03/2014 22:23:20 0.65,-131.99 0.11,-134.49 284.71 80




NCC Satellite Simultaneous Nadir Overpasses (SNOs) Prediction Service
